Location: Brahman Valley
(40.6513°N, 111.8855°W)
Time: 20:45:01
(UTC+00:00)

Vanguard 2 - Pass Details

Date: 21 May 2021
Orbit: 552 x 2937 km, 32.9° (Epoch: 14 June)

Event Time Altitude Azimuth Distance (km) Brightness Sun altitude
Exits shadow 12:10:24 - 253° (WSW) 3,692 10.3 0.0°
Rises 12:10:30 0° 253° (WSW) 3,657 10.3 0.1°
Reaches altitude 10° 12:12:44 10° 248° (WSW) 2,937 9.9 0.4°
Maximum altitude 12:19:54 54° 173° (S) 1,801 9.4 1.7°
Drops below altitude 10° 12:31:53 10° 102° (ESE) 4,785 12.6 3.7°
Sets 12:36:33 0° 98° (E) 6,128 13.3 4.5°
